Probability
0 0 0 0 0 0 0 0 0 0 0 0 0 0 0 0 0 0 0 0 0 0 0 0 0 0 0 0 0 0 0 0 0 0 0 0 0 0 0 0 0 0 0
0 0 0 0 0 0 0 0 0 0 0 0 0 0 0 0 0 0 0 0 0 0 0 0 0 0 0 0 0 0 0 0 0 0 0 0 0 0 0 0 0 0 0
0 0 0 0 0 0 0 0 0 0 0 0 0 0 0 0 0 0 0 0 0 0 0 0 0 0 0 0 0 0 0 0 0 0 0 0 0 0 0 0 0 0 0
0 0 0 0 0 0 0 0 0 0 0 0 0 0 0 0 0 0 0 0 0 0 0 0 0 0 0 0 0 0 0 0 0 0 0 0 0 0 0 0 0 0 0
0 0 0 0 0 0 0 0 0 0 0 0 0 0 0 0 0 0 0 0 0 0 0 0 0 0 0 0 0 0 0 0 0 0 0 0 0 0 0 0 0 0 0
0 0 0 0 0 0 0 0 0 0 0 0 0 0 0 0 0 0 0 0 0 0 0 0 0 0 0 0 0 0 0 0 0 0 0 0 0 0 0 0 0 0 0
0 0 0 0 0 0 0 0 0 0 0 0 0 0 0 0 0 0 0 0 0 0 0 0 0 0 0 0 0 0 0 0 0 0 0 0 0 0 0 0 0 0 0
0 0 0 0 0 0 0 0 0 0 0 0 0 0 0 0 0 0 0 0 0 0 0 0 0 0 0 0 0 0 0 0 0 0 0 0 0 0 0 0 0 0 0
0 0 0 0 0 0 0 0 0 0 0 0 0 0 0 0 0 0 0 0 0 0 0 0 0 0 0 0 0 0 0 0 0 0 0 0 0 0 0 0 0 0 0
0 0 0 0 0 0 0 0 0 0 0 0 0 0 0 0 0 0 0 0 0 0 0 0 0 0 0 0 0 0 0 0 0 0 0 0 0 0 0 0 0 0 0
0 0 0 0 0 0 0 0 0 0 0 0 0 0 0 0 0 0 0 0 0 0 0 0 0 0 0 0 0 0 0 0 0 0 0 0 0 0 0 0 0 0 0
0 0 0 0 0 0 0 0 0 0 0 0 0 0 0 0 0 0 0 0 0 0 0 0 0 0 0 0 0 0 0 0 0 0 0 0 0 0 0 0 0 0 0
0 0 0 0 0 0 0 0 0 0 0 0 0 0 0 0 0 0 0 0 0 0 0 0 0 0 0 0 0 0 0 0 0 0 0 0 0 0 0 0 0 0 0
0 0 0 0 0 0 0 0 0 0 0 0 0 0 0 0 0 0 0 0 0 0 0 0 0 0 0 0 0 0 0 0 0 0 0 0 0 0 0 0 0 0 0
0 0 0 0 0 0 0 0 0 0 0 0 0 0 0 0 0 0 0 0 0 0 0 0 0 0 0 0 0 0 0 0 0 0 0 0 0 0 0 0 0 0 0
0 0 0 0 0 0 0 0 0 0 0 0 0 0 0 0 0 0 0 0 0 0 0 0 0 0 0 0 0 0 0 0 0 0 0 0 0 0 0 0 0 0 0
0 0 0 0 0 0 0 0 0 0 0 0 0 0 0 0 0 0 0 0 0 0 0 0 0 0 0 0 0 0 0 0 0 0 0 0 0 0 0 0 0 0 0
0 0 0 0 0 0 0 0 0 0 0 0 0 0 0 0 0 0 0 0 0 0 0 0 0 0 0 0 0 0 0 0 0 0 0 0 0 0 0 0 0 0 0
0 0 0 0 0 0 0 0 0 0 0 0 0 0 0 0 0 0 0 0 0 0 0 0 0 0 0 0 0 0 0 0 0 0 0 0 0 0 0 0 0 0 0
0 0 0 0 0 0 0 0 0 0 0 0 0 0 0 0 0 0 0 0 0 0 0 0 0 0 0 0 0 0 0 0 0 0 0 0 0 0 0 0 0 0 0
0 0 0 0 0 0 0 0 0 0 0 0 0 0 0 0 0 0 0 0 0 0 0 0 0 0 0 0 0 0 0 0 0 0 0 0 0 0 0 0 0 0 0
0 0 0 0 0 0 0 0 0 0 0 0 0 0 0 0 0 0 0 0 0 0 0 0 0 0 0 0 0 0 0 0 0 0 0 0 0 0 0 0 0 0 0
0 0 0 0 0 0 0 0 0 0 0 0 0 0 0 0 0 0 0 0 0 0 0 0 0 0 0 0 0 0 0 0 0 0 0 0 0 0 0 0 0 0 0
0 0 0 0 0 0 0 0 0 0 0 0 0 0 0 0 0 0 0 0 0 0 0 0 0 0 0 0 0 0 0 0 0 0 0 0 0 0 0 0 0 0 0
0 0 0 0 0 0 0 0 0 0 0 0 0 0 0 0 0 0 0 0 0 0 0 0 0 0 0 0 0 0 0 0 0 0 0 0 0 0 0 0 0 0 0
0 0 0 0 0 0 0 0 0 0 0 0 0 0 0 0 0 0 0 0 0 0 0 0 0 0 0 0 0 0 0 0 0 0 0 0 0 0 0 0 0 0 0
Height
5714 5712 5710 5709 5707 5706 5705 5704 5703 5702 5702 5701 5700 5699 5698 5698 5697 5696 5695 5694 5694 5693 5692 5692 5692 5692 5693 5693 5693 5693 5693 5693 5694 5695 5695 5696 5697 5698 5699 5701 5703 5706 5709
5704 5702 5700 5698 5697 5696 5694 5693 5692 5691 5690 5689 5688 5688 5687 5686 5684 5683 5682 5681 5680 5679 5679 5678 5678 5678 5678 5678 5678 5678 5678 5678 5678 5679 5680 5681 5682 5683 5684 5685 5687 5690 5692
5694 5692 5690 5688 5686 5685 5683 5682 5681 5680 5679 5677 5677 5676 5674 5673 5672 5670 5669 5667 5666 5665 5664 5663 5663 5663 5663 5662 5662 5662 5662 5662 5662 5662 5663 5664 5666 5668 5670 5670 5672 5673 5676
5684 5682 5680 5678 5676 5674 5672 5671 5670 5669 5667 5666 5665 5664 5662 5661 5659 5657 5655 5653 5651 5650 5649 5648 5647 5647 5647 5646 5646 5645 5646 5646 5647 5646 5646 5647 5648 5650 5653 5656 5656 5657 5660
5673 5671 5669 5667 5665 5663 5662 5660 5659 5657 5656 5655 5653 5651 5650 5648 5646 5643 5641 5639 5637 5635 5633 5632 5632 5631 5630 5630 5629 5629 5629 5629 5630 5630 5630 5630 5631 5631 5634 5639 5642 5643 5644
5663 5661 5658 5656 5654 5653 5651 5649 5648 5646 5644 5643 5641 5639 5637 5634 5632 5630 5628 5625 5623 5621 5619 5617 5616 5614 5614 5613 5612 5612 5612 5612 5612 5612 5612 5613 5614 5615 5617 5620 5624 5627 5628
5652 5649 5648 5646 5644 5642 5640 5638 5636 5634 5633 5630 5628 5626 5623 5621 5619 5616 5614 5612 5609 5606 5604 5602 5600 5598 5597 5596 5595 5595 5594 5594 5595 5595 5595 5596 5596 5598 5600 5602 5605 5609 5612
5641 5639 5637 5635 5633 5631 5629 5627 5624 5622 5620 5618 5615 5613 5610 5608 5605 5602 5599 5597 5594 5592 5589 5587 5585 5582 5581 5580 5579 5578 5578 5578 5578 5578 5579 5580 5580 5581 5583 5585 5587 5591 5594
5630 5628 5626 5624 5621 5619 5617 5615 5612 5610 5607 5605 5602 5600 5597 5594 5591 5588 5585 5582 5579 5577 5574 5572 5570 5568 5566 5564 5563 5563 5562 5562 5562 5562 5563 5563 5564 5565 5567 5568 5570 5573 5577
5619 5617 5615 5612 5610 5608 5605 5603 5600 5597 5595 5592 5589 5586 5583 5580 5577 5574 5571 5568 5565 5562 5559 5557 5555 5553 5551 5549 5548 5547 5546 5546 5547 5547 5547 5548 5548 5549 5550 5552 5553 5555 5559
5608 5606 5603 5601 5599 5596 5594 5591 5588 5585 5582 5579 5576 5573 5570 5567 5564 5560 5557 5553 5550 5547 5545 5543 5540 5538 5536 5534 5533 5531 5531 5531 5531 5531 5532 5532 5533 5533 5534 5535 5537 5539 5541
5596 5594 5592 5589 5587 5584 5581 5578 5576 5573 5569 5566 5563 5560 5557 5553 5550 5547 5543 5540 5537 5534 5531 5528 5526 5524 5521 5519 5518 5517 5516 5516 5516 5516 5516 5516 5517 5518 5518 5519 5521 5522 5524
5585 5583 5580 5577 5575 5572 5569 5566 5563 5560 5556 5553 5550 5546 5543 5540 5537 5533 5530 5526 5523 5520 5517 5514 5512 5509 5507 5505 5503 5502 5502 5501 5501 5501 5501 5501 5501 5502 5503 5504 5505 5506 5508
5574 5571 5568 5566 5563 5560 5557 5554 5550 5547 5544 5540 5537 5534 5530 5527 5524 5520 5517 5513 5510 5506 5504 5501 5498 5496 5493 5491 5490 5488 5487 5487 5486 5486 5485 5485 5486 5487 5488 5488 5490 5491 5492
5563 5560 5557 5554 5551 5548 5545 5542 5539 5535 5532 5528 5525 5521 5518 5514 5510 5507 5504 5500 5497 5493 5490 5488 5485 5482 5480 5478 5476 5475 5474 5473 5472 5471 5471 5471 5471 5472 5472 5473 5475 5475 5477
5552 5549 5546 5543 5540 5537 5534 5531 5527 5524 5520 5516 5513 5509 5505 5501 5498 5494 5490 5487 5484 5481 5478 5475 5472 5469 5467 5465 5463 5462 5461 5460 5459 5458 5458 5457 5457 5457 5458 5459 5459 5460 5461
5541 5538 5535 5532 5529 5526 5522 5519 5516 5512 5509 5505 5501 5497 5493 5489 5485 5481 5477 5473 5470 5467 5464 5462 5459 5457 5455 5453 5451 5449 5448 5447 5446 5445 5445 5444 5444 5444 5444 5444 5445 5446 5446
5530 5527 5524 5521 5518 5514 5511 5508 5504 5500 5497 5493 5489 5485 5481 5476 5472 5468 5464 5460 5457 5454 5451 5449 5447 5444 5442 5440 5438 5437 5436 5434 5433 5433 5432 5432 5431 5431 5431 5431 5431 5432 5432
5519 5516 5513 5510 5507 5503 5499 5496 5492 5488 5484 5481 5477 5472 5468 5464 5459 5455 5451 5447 5443 5440 5438 5436 5434 5432 5430 5428 5426 5424 5423 5422 5421 5420 5420 5419 5419 5418 5418 5418 5418 5419 5419
5507 5504 5502 5498 5495 5492 5488 5484 5480 5476 5473 5468 5464 5460 5456 5451 5447 5443 5438 5434 5430 5427 5425 5423 5421 5420 5418 5416 5414 5412 5412 5411 5410 5409 5408 5407 5406 5406 5404 5404 5405 5405 5405
5496 5493 5490 5487 5484 5480 5477 5473 5469 5465 5461 5456 5452 5448 5443 5439 5435 5430 5426 5422 5418 5415 5413 5411 5409 5408 5406 5404 5402 5401 5399 5399 5398 5397 5396 5395 5394 5394 5393 5392 5392 5392 5392
5485 5482 5479 5476 5472 5469 5465 5462 5457 5453 5449 5444 5440 5435 5431 5427 5423 5418 5414 5410 5407 5404 5402 5400 5398 5396 5394 5392 5391 5389 5388 5387 5387 5386 5385 5384 5383 5382 5381 5380 5380 5379 5379
5474 5471 5468 5465 5461 5457 5454 5450 5446 5442 5437 5433 5429 5424 5420 5416 5412 5408 5403 5400 5396 5394 5392 5389 5388 5385 5383 5381 5380 5378 5377 5376 5375 5375 5374 5373 5372 5371 5370 5369 5368 5367 5367
5463 5460 5457 5453 5450 5446 5443 5439 5435 5431 5427 5423 5418 5414 5410 5406 5402 5398 5394 5390 5387 5384 5382 5380 5378 5375 5373 5371 5369 5368 5367 5365 5364 5364 5363 5362 5361 5360 5359 5358 5357 5356 5355
5452 5449 5446 5443 5439 5436 5432 5429 5425 5421 5417 5413 5409 5405 5401 5397 5393 5389 5385 5382 5378 5375 5373 5370 5368 5366 5364 5361 5359 5357 5356 5355 5354 5353 5352 5351 5350 5349 5348 5347 5346 5345 5344
5441 5438 5435 5432 5428 5425 5422 5418 5415 5411 5408 5404 5400 5396 5392 5388 5384 5380 5377 5373 5370 5367 5364 5361 5359 5357 5355 5352 5350 5348 5346 5345 5344 5343 5342 5341 5340 5339 5337 5336 5335 5334 5333
Wind_Speed
35 36 36 37 38 38 38 39 39 40 41 42 43 42 43 44 44 46 47 47 48 49 49 49 49 50 50 51 51 52 53 54 55 54 54 54 55 55 55 55 55 55 54
36 36 37 38 39 39 40 40 41 41 42 43 43 44 45 46 46 47 49 50 50 51 52 52 52 52 52 53 54 54 54 55 55 55 55 55 56 56 57 57 57 57 57
36 36 37 37 38 39 39 40 41 42 42 43 44 44 45 47 48 48 50 51 51 52 53 53 54 55 55 55 56 56 55 55 55 55 56 56 56 56 56 57 58 58 57
34 35 35 36 37 39 40 40 41 42 42 43 44 44 46 47 48 50 50 51 51 53 55 55 55 56 56 57 56 56 57 57 56 57 57 57 57 57 56 56 56 56 57
34 34 35 36 37 39 39 40 41 42 43 44 45 46 47 48 49 50 51 51 51 53 54 55 56 56 57 57 57 58 58 58 58 58 57 57 57 57 57 56 56 57 58
35 36 36 37 38 38 39 40 41 42 43 44 45 47 47 48 49 50 51 52 52 53 53 54 56 56 58 57 57 58 58 58 58 58 58 57 57 57 58 57 57 57 58
36 36 37 37 38 38 39 41 42 43 44 45 46 47 48 48 49 50 52 52 53 54 54 54 54 55 56 56 57 57 57 57 57 57 57 57 58 58 58 58 58 58 57
37 37 37 38 39 39 40 42 43 44 45 45 47 48 48 49 50 51 52 53 53 54 53 53 53 52 53 54 54 55 56 56 56 55 56 56 56 57 57 58 58 58 57
37 38 38 38 39 40 41 42 43 44 45 45 46 48 49 49 50 51 52 53 53 53 53 53 52 51 52 52 53 54 54 54 55 55 55 55 56 55 56 57 58 58 58
37 38 38 38 39 41 42 42 43 44 45 46 47 48 48 49 50 51 51 52 52 52 52 52 52 51 52 52 53 53 53 53 54 55 55 55 56 55 56 56 57 57 58
38 38 39 39 40 41 42 43 44 44 45 46 47 48 48 48 49 50 50 50 51 51 51 51 51 51 51 51 52 52 52 52 53 54 54 54 56 55 55 55 56 57 58
39 39 40 40 41 41 42 42 43 45 46 46 46 47 48 48 49 49 49 50 49 49 49 50 50 50 50 50 50 50 51 51 51 52 52 53 54 54 54 55 55 56 56
38 39 40 41 41 42 42 42 43 44 45 44 45 45 47 48 48 48 48 48 48 48 48 48 48 48 49 49 49 49 49 49 50 50 51 51 52 53 53 53 53 54 55
37 38 39 39 39 40 41 42 42 43 43 43 44 45 45 46 47 47 47 47 46 46 46 47 47 47 47 47 47 47 48 48 48 48 49 49 50 51 51 52 52 53 53
37 37 37 38 38 39 40 40 40 41 42 42 43 43 44 45 46 46 46 46 45 45 45 45 45 45 45 45 45 46 46 46 46 46 47 48 48 48 49 50 51 51 51
37 38 38 38 38 39 39 40 40 40 40 41 41 42 42 44 44 44 45 45 45 45 44 44 44 43 43 43 44 44 44 44 44 44 45 47 47 46 47 47 48 50 51
37 38 38 38 39 39 39 39 39 40 40 40 40 41 42 43 43 43 44 44 45 44 44 43 43 42 42 42 42 42 42 42 43 43 43 44 44 44 45 46 47 48 49
37 38 38 38 39 39 39 39 39 40 40 40 41 41 42 42 43 43 44 45 45 44 43 42 41 41 41 41 41 41 41 41 41 41 41 42 42 43 43 44 45 46 47
37 37 38 38 38 38 39 39 39 40 40 41 41 41 41 42 42 42 43 43 43 42 41 40 40 40 40 40 40 40 39 39 40 40 40 40 40 41 42 43 44 45 45
37 37 37 37 38 38 38 39 39 39 40 40 41 41 41 42 41 41 41 40 40 39 39 39 39 39 38 38 38 39 38 38 38 38 39 40 40 40 41 42 42 43 44
37 37 37 37 37 38 38 38 39 39 40 40 41 41 40 40 39 39 39 38 37 37 36 36 36 36 36 36 36 37 37 37 36 36 37 38 39 39 39 40 40 41 42
36 37 37 37 37 37 37 37 38 38 39 39 39 39 38 38 37 37 37 36 34 34 34 34 34 34 35 35 34 35 35 35 35 35 36 36 37 37 38 38 39 40 40
36 37 37 37 37 37 37 37 37 37 37 37 36 36 36 36 35 35 34 33 33 33 32 32 32 33 33 33 34 33 34 35 35 35 35 35 36 36 37 37 38 38 39
36 37 37 37 37 37 36 36 36 35 35 35 35 34 34 34 34 33 32 31 31 31 31 31 31 31 31 32 32 32 33 33 34 34 34 34 34 35 36 36 37 38 38
36 36 36 36 36 36 35 35 34 34 34 33 33 33 33 33 32 31 31 30 30 30 30 29 29 30 30 31 31 31 32 32 33 33 33 34 34 34 34 35 36 37 37
36 36 36 36 36 35 34 33 33 33 33 32 32 32 31 31 30 30 30 29 29 29 29 28 28 28 28 29 30 31 31 31 32 32 32 32 32 32 33 34 34 35 35
Wind_Direction
278 277 276 275 273 272 271 270 269 269 268 268 267 268 269 268 269 270 271 272 272 271 271 270 269 269 268 268 268 268 267 267 266 266 265 265 263 261 260 258 257 256 255
277 276 276 275 273 272 272 271 269 269 269 268 268 269 270 270 270 272 272 273 273 272 272 271 270 269 269 270 269 269 268 267 266 266 265 264 263 261 260 258 257 257 256
277 277 277 276 274 273 272 271 269 269 270 270 270 270 271 272 272 273 274 274 274 273 273 273 271 270 269 270 270 269 268 267 266 266 266 264 262 261 259 258 257 256 256
277 277 277 276 275 273 272 271 270 270 271 271 271 272 273 273 274 274 275 274 274 274 274 273 272 270 269 270 269 269 268 267 266 267 267 266 264 261 259 256 256 255 255
278 277 277 277 276 274 272 271 270 270 272 272 273 274 275 275 276 276 276 275 276 277 276 274 273 272 270 270 270 269 269 268 267 266 267 266 265 263 260 256 255 255 255
279 278 277 277 277 275 274 272 272 273 274 275 275 275 275 276 277 277 276 276 277 277 277 276 274 273 272 271 270 270 269 268 267 267 267 266 264 262 260 258 256 255 255
280 279 278 278 277 276 276 276 276 276 277 276 276 276 276 277 277 278 277 277 277 278 278 277 276 274 273 271 271 270 269 267 267 267 266 265 264 261 259 259 258 256 255
280 279 279 279 279 278 279 279 278 277 277 277 277 277 277 278 278 279 278 278 278 278 278 278 277 275 274 272 271 270 269 267 267 266 266 265 264 261 260 260 259 258 255
280 280 280 279 279 279 280 280 279 278 277 278 278 278 279 279 280 280 280 279 279 279 279 278 277 276 274 272 271 270 268 267 266 265 265 265 264 262 261 260 260 259 256
280 281 280 279 280 279 280 281 281 279 279 279 280 280 281 281 281 282 282 281 280 279 278 278 277 276 275 273 272 270 268 267 265 265 265 266 264 263 262 261 260 259 258
281 280 280 280 280 280 281 280 281 281 282 282 281 281 281 282 282 283 283 282 281 280 278 278 277 276 276 275 273 271 269 268 266 266 266 265 264 263 262 261 260 260 260
283 282 281 281 281 281 281 281 282 282 282 282 283 282 282 283 284 285 285 283 282 281 280 278 278 277 276 275 274 271 269 268 267 266 266 266 264 263 263 262 261 261 260
285 284 284 283 283 283 282 282 283 283 283 283 284 285 285 285 285 286 286 285 284 282 280 280 279 277 276 275 274 271 269 268 267 266 266 266 264 263 263 262 261 261 260
285 285 286 285 285 286 285 285 285 285 286 286 286 286 286 286 286 286 286 286 285 283 281 280 280 278 276 275 274 272 271 269 268 266 266 266 264 263 263 262 262 261 261
285 286 286 286 287 287 287 287 287 287 288 288 288 287 287 287 287 287 286 286 285 283 282 281 280 278 277 275 274 273 272 269 268 267 266 266 265 265 264 263 263 263 262
285 286 287 287 287 287 287 288 288 288 289 289 289 288 288 288 288 287 287 286 285 284 283 281 280 278 277 276 275 273 272 270 269 268 267 267 266 266 265 263 263 264 263
287 287 287 287 288 288 288 288 287 288 289 290 290 290 289 289 288 288 287 286 285 284 283 282 281 280 278 276 275 273 272 272 270 269 268 267 266 265 265 264 264 263 263
288 288 288 288 289 289 288 288 288 289 289 290 291 291 291 290 290 289 288 287 286 284 282 281 280 280 278 277 275 274 273 273 271 270 269 268 266 266 265 265 264 264 263
288 288 288 289 289 290 290 290 291 291 291 291 292 292 292 292 291 292 291 289 287 284 281 280 280 280 279 277 275 274 273 273 272 270 269 268 268 267 267 266 266 265 264
288 288 288 289 290 291 292 292 293 293 293 293 293 293 294 294 293 292 293 291 288 284 282 281 281 280 279 278 276 274 273 273 272 270 270 270 269 268 268 268 267 266 265
289 289 289 290 291 292 293 294 294 294 295 294 294 294 294 294 294 294 293 291 288 285 283 282 282 281 281 279 277 276 274 273 272 272 272 272 271 270 269 269 268 268 266
289 289 290 290 291 292 293 294 294 295 296 296 295 295 295 295 296 297 294 291 288 286 283 283 282 282 281 280 278 276 275 274 273 273 272 272 272 271 270 271 270 268 266
288 290 291 291 291 292 293 293 295 296 296 297 297 296 296 297 297 297 295 291 289 287 284 283 283 282 282 281 279 277 276 275 274 274 273 273 272 272 272 271 271 269 267
290 291 292 292 292 292 293 294 295 296 296 297 297 296 296 297 297 297 295 292 291 289 286 285 284 283 282 281 280 278 276 275 276 275 273 273 274 274 273 272 272 270 268
291 291 292 292 292 292 293 294 295 295 296 297 297 296 297 297 297 297 296 294 294 293 290 287 286 284 282 281 281 279 276 276 277 276 274 273 274 274 274 274 273 271 270
291 292 292 292 292 292 292 294 295 295 296 296 297 297 296 296 297 297 297 296 295 293 292 291 289 286 284 283 282 281 279 278 277 277 275 274 274 274 274 274 273 272 270